Wind_Speed
20 19 20 21 21 20 17 16 17 16 16 15 15 15 14 14 15 15 15 16 16 16 15 14 14 14 14 14 13 13 12 13 13 12 12 11 11 12 13 13 12 12 11 11 11 11 10 9 9 9 9 8 8 8 8 9 8 8 8 8 8 7 7
21 20 22 23 22 20 17 17 17 16 16 16 15 14 14 14 15 15 16 16 16 15 14 13 13 13 13 13 13 14 14 13 14 13 12 12 12 12 13 13 13 13 12 11 11 10 10 9 9 9 9 8 8 8 9 9 10 10 9 9 9 8 8
22 22 23 24 22 19 18 18 18 16 16 16 14 14 13 14 15 16 16 16 15 14 13 13 13 13 13 14 14 15 15 14 15 15 14 13 13 13 13 13 13 13 13 12 11 10 9 9 9 9 9 8 8 8 8 9 10 10 10 10 9 9 9
22 22 24 24 21 18 17 18 17 16 15 14 13 13 13 14 15 16 16 15 14 13 13 13 13 13 14 14 15 16 16 16 16 16 15 14 14 13 13 13 13 14 13 13 12 10 10 11 10 9 9 9 9 8 9 9 10 10 10 10 10 9 9
24 24 25 25 20 17 16 16 16 15 15 14 13 13 13 14 15 16 16 15 14 14 13 13 13 14 15 15 16 16 16 16 16 17 17 15 14 14 13 13 13 13 13 12 12 12 12 12 11 10 11 11 10 10 10 9 10 10 10 10 9 9 9
26 27 27 25 20 17 15 15 15 15 14 14 13 12 13 14 15 16 16 15 15 14 14 14 14 15 15 16 16 17 17 17 17 17 18 17 15 14 13 13 13 13 12 11 11 12 13 14 13 12 12 11 11 10 10 10 10 10 10 9 9 9 9
23 25 26 24 21 18 15 14 15 15 14 13 13 13 14 15 15 16 16 15 15 15 15 15 15 15 16 16 16 16 16 17 17 18 18 18 16 14 13 12 12 11 11 11 11 12 13 13 13 13 12 12 11 11 10 10 11 11 10 9 9 10 10
22 24 25 23 21 18 15 15 15 15 14 14 14 15 16 16 16 16 16 16 16 17 17 16 16 17 17 17 16 16 16 17 17 18 18 18 17 15 12 12 13 11 10 11 12 12 13 12 12 12 12 12 12 12 11 11 11 11 11 11 11 11 11
21 24 25 24 21 17 16 16 16 16 16 16 16 16 17 16 16 16 17 17 18 18 18 17 17 17 17 16 16 16 16 17 17 17 17 17 17 15 13 13 13 12 11 11 11 13 13 12 12 13 13 13 13 12 12 11 11 12 12 12 12 12 12
20 23 26 24 21 18 17 17 17 17 17 17 17 18 17 17 17 17 18 18 18 18 18 18 18 17 16 16 16 16 16 16 17 17 16 16 15 15 15 14 13 12 12 12 12 13 14 13 14 14 14 14 13 13 12 12 12 12 12 12 12 12 12
19 22 24 23 19 18 18 19 18 18 17 17 18 19 18 18 18 18 18 19 18 18 18 18 17 16 16 16 16 16 16 16 17 16 15 14 14 15 15 15 13 12 12 13 13 14 15 15 15 15 15 14 13 13 13 13 13 12 12 13 13 12 12
19 19 20 19 16 16 18 19 18 18 18 18 18 18 18 18 18 18 18 18 18 17 17 17 16 16 16 16 16 16 15 16 16 15 14 14 14 15 15 16 15 13 13 13 14 15 16 16 16 15 15 14 14 13 13 14 13 13 13 13 14 14 14
20 18 19 18 15 15 18 19 20 19 19 18 17 18 19 18 18 18 18 17 17 17 17 17 17 16 16 16 15 15 15 15 14 14 14 14 14 15 15 16 15 14 14 14 15 17 17 16 16 16 15 14 15 14 14 14 14 14 14 15 15 16 16
20 20 21 19 15 16 19 20 21 20 19 18 18 19 19 19 19 18 18 17 17 17 18 18 18 17 17 16 16 15 14 13 13 12 13 13 14 15 15 15 15 16 16 16 17 17 17 17 17 16 15 15 15 15 15 15 15 15 15 16 17 17 18
20 21 24 22 16 16 19 21 21 20 19 20 20 21 21 20 19 18 18 17 17 18 19 19 19 19 18 17 17 17 15 14 13 12 12 13 12 13 14 15 16 16 17 17 18 18 18 18 17 17 16 16 16 16 15 15 16 16 17 17 18 19 19
20 21 25 23 16 16 19 20 20 19 19 19 20 21 21 19 19 19 19 18 18 19 19 19 19 19 18 18 18 18 18 16 16 15 14 14 13 13 14 14 15 16 17 18 18 19 19 19 18 18 17 17 17 17 17 16 17 17 18 19 20 20 21
19 20 24 23 18 17 19 19 18 18 18 18 18 20 20 19 19 19 20 20 19 19 17 16 17 17 17 18 18 18 19 18 18 17 17 16 16 16 16 16 17 17 18 19 20 20 20 20 20 19 18 18 19 19 18 18 18 19 20 20 21 22 22
18 20 23 23 21 20 21 20 18 19 18 18 19 20 19 19 20 20 20 20 20 18 16 15 14 15 15 16 18 19 19 19 18 18 17 18 18 18 19 19 19 19 20 21 21 22 22 22 22 21 20 20 21 21 20 20 20 21 22 23 23 24 24
18 21 23 23 22 22 22 22 21 21 20 20 20 21 21 21 21 21 21 21 20 19 18 16 15 15 15 16 17 18 19 20 19 18 18 18 18 19 20 21 21 21 22 22 23 23 23 23 23 22 22 22 22 22 22 22 22 23 24 25 25 26 26
21 23 24 23 22 22 23 23 23 22 21 21 21 22 23 23 23 22 22 22 21 20 19 18 17 17 17 17 18 19 20 21 21 21 20 20 20 21 21 22 22 22 22 23 23 24 24 24 24 23 23 23 23 23 24 24 25 25 26 26 27 28 28
23 23 23 23 22 22 22 22 22 21 21 21 22 23 24 24 23 23 23 23 22 22 21 20 19 19 19 20 20 21 21 22 23 23 24 23 23 23 23 23 24 23 23 24 24 24 24 24 24 24 24 23 23 24 25 26 26 27 28 29 30 30 31
23 23 22 23 23 21 21 21 21 20 20 21 22 23 23 23 23 23 24 24 24 23 22 22 21 21 21 21 21 21 22 23 24 25 26 26 25 25 25 25 24 24 24 24 24 24 24 25 25 24 24 24 24 25 26 27 28 29 30 31 33 33 34
23 24 23 24 24 22 20 21 21 20 20 21 22 22 23 23 23 24 24 24 24 24 24 25 24 22 21 21 21 21 22 24 25 26 27 27 27 27 26 25 24 23 23 23 24 24 25 25 25 25 25 25 26 27 28 29 31 32 32 33 35 36 37
23 23 23 24 25 24 22 22 22 21 21 21 21 21 23 23 23 24 24 24 24 25 26 27 26 24 23 23 22 22 23 24 25 27 28 28 27 26 25 24 24 24 24 24 25 25 26 26 26 26 27 28 29 30 31 32 33 33 34 35 36 37 38
22 23 22 22 23 24 23 23 23 23 23 22 22 22 23 23 23 24 23 23 25 27 28 29 29 29 29 27 26 25 25 25 26 28 28 27 26 25 25 24 24 25 25 25 26 26 27 27 28 29 30 31 31 32 33 35 35 36 37 38 39 40 41
21 22 21 20 22 24 24 24 24 25 25 24 24 24 24 25 25 25 24 24 26 27 29 30 31 31 31 30 29 29 28 27 27 27 27 27 26 26 25 25 25 25 25 26 28 28 28 29 30 31 32 33 34 35 36 37 38 39 40 41 41 42 42
22 23 23 22 23 24 25 25 26 27 27 26 26 26 27 28 28 28 27 28 29 31 32 34 34 34 32 30 31 33 31 28 27 27 27 26 26 26 26 26 26 25 25 26 29 30 29 30 31 33 34 35 37 38 39 40 41 42 43 43 44 44 45
23 23 24 23 23 24 25 26 26 28 28 29 29 29 29 30 31 32 32 32 33 34 34 35 36 37 35 33 34 36 33 30 28 27 26 26 26 27 27 27 28 28 27 28 30 31 31 30 29 31 34 36 38 40 41 42 43 44 45 46 47 47 47
26 26 26 25 25 25 26 27 28 29 31 33 33 32 30 30 30 31 32 32 31 31 30 31 33 35 36 36 36 35 33 31 29 28 27 26 27 28 29 29 30 30 31 32 33 33 34 33 32 32 34 36 38 38 37 39 42 44 46 48 49 50 50
29 28 28 27 27 28 28 29 30 31 32 32 31 30 28 26 25 25 26 27 27 27 27 27 28 30 34 35 32 30 30 30 29 27 27 27 28 29 28 29 30 31 32 34 35 35 36 38 38 38 39 40 40 40 39 40 43 45 47 48 50 51 52
27 26 26 26 27 28 28 28 30 29 28 26 25 25 25 24 24 24 24 25 26 26 26 25 25 27 29 28 27 27 28 28 27 27 27 27 28 29 30 30 32 33 34 35 36 36 37 39 41 42 42 42 42 42 43 45 47 49 50 51 51 52 53
24 25 25 26 27 26 26 26 27 27 26 25 24 24 24 24 24 24 25 26 26 26 25 24 25 26 27 26 25 26 27 27 27 28 29 29 30 31 33 34 35 37 38 39 40 40 41 42 44 45 46 46 46 47 48 49 50 52 53 53 53 53 54
24 25 25 26 26 26 27 28 28 27 26 25 25 24 24 24 24 24 25 25 26 26 25 25 25 26 27 26 26 27 27 28 29 30 31 31 33 34 36 37 38 39 41 43 44 44 44 44 44 45 47 48 49 50 51 52 54 56 56 56 57 57 57
25 26 26 26 26 27 28 29 29 28 26 25 25 25 25 25 25 26 26 26 26 26 27 27 27 27 27 28 28 28 29 29 30 32 34 35 36 37 38 38 39 41 43 44 45 45 45 46 47 48 49 50 51 53 55 57 58 60 61 61 62 62 63
26 27 27 28 27 27 27 27 27 27 26 25 26 26 26 26 26 27 27 27 27 28 28 28 28 28 29 29 29 30 31 31 33 36 38 39 40 41 42 42 42 43 43 44 45 46 49 50 52 53 54 55 57 58 60 61 62 63 63 64 65 67 67
28 29 29 29 29 28 27 27 27 27 27 28 28 28 28 28 29 29 29 29 30 30 30 31 31 31 32 32 33 34 36 37 39 41 42 43 45 46 46 46 47 48 49 50 50 52 53 55 56 58 60 61 62 63 63 64 64 64 65 65 66 67 67
30 31 31 31 31 30 30 30 30 30 30 31 32 32 32 32 33 33 33 33 33 33 34 35 36 36 36 36 37 39 41 42 44 45 45 46 47 49 50 50 51 52 54 56 57 58 59 61 62 63 64 65 66 65 65 65 65 66 67 67 68 69 69
Wind_Direction
241 240 241 244 239 239 255 264 261 261 259 257 253 248 246 245 247 253 259 262 263 260 258 256 255 257 262 268 273 276 273 272 272 269 268 273 280 283 286 284 280 277 272 268 266 265 264 263 263 265 264 265 268 271 271 270 272 273 274 278 284 290 294
243 243 245 242 232 237 258 264 260 259 257 255 252 248 248 248 251 256 259 261 259 257 255 254 256 262 269 276 280 280 277 274 273 271 272 276 278 280 283 278 274 274 269 266 266 261 261 265 267 266 263 264 268 272 276 278 280 280 283 286 289 291 291
248 250 246 234 227 240 257 259 258 256 253 253 249 246 247 250 255 258 259 257 255 253 252 254 260 267 275 280 282 281 279 275 272 271 271 274 275 278 279 276 274 273 267 266 265 259 260 267 270 269 266 266 269 272 277 281 283 284 285 285 287 288 289
252 250 242 229 230 248 256 257 258 254 248 246 242 241 246 253 258 258 256 254 251 251 253 257 263 270 275 278 279 279 278 274 271 270 270 273 277 278 276 272 270 268 264 262 260 260 265 268 266 266 270 274 277 278 277 279 282 284 284 286 288 290 291
249 245 235 228 240 260 262 260 259 250 242 238 237 243 251 256 257 256 254 251 250 251 254 259 264 269 272 274 275 276 275 272 271 271 272 274 277 276 273 270 266 263 261 259 259 262 266 267 268 270 274 277 277 274 273 274 277 278 281 284 288 291 294
244 241 231 230 251 266 261 258 252 242 236 235 241 250 255 256 254 253 251 249 248 250 254 260 263 266 269 271 273 273 273 271 270 271 274 275 274 272 272 270 263 259 260 258 259 261 261 266 271 271 272 272 271 270 271 272 273 274 278 282 288 293 296
243 238 230 236 258 262 251 247 241 235 234 237 247 254 255 254 251 249 247 246 248 251 255 260 263 266 268 269 270 270 269 268 267 270 274 276 275 272 271 266 258 255 259 260 258 257 259 263 267 267 269 269 268 269 270 270 272 275 279 284 290 294 296
246 239 235 247 261 255 243 236 230 230 234 239 248 253 254 252 249 246 245 246 248 251 255 260 265 267 267 266 266 266 266 265 266 270 274 277 276 272 264 257 256 254 255 258 260 260 260 262 264 265 266 267 269 270 271 272 276 281 287 291 295 297 297
251 242 242 253 260 253 241 230 224 227 233 239 246 251 253 251 246 245 245 247 249 252 257 262 265 265 263 262 264 265 265 266 267 270 272 273 273 269 258 250 250 249 248 254 261 265 265 264 264 265 266 267 269 270 273 277 284 289 294 297 299 299 298
255 248 250 254 255 252 240 226 222 226 232 239 245 251 253 249 246 246 246 248 251 254 258 260 260 260 259 260 262 263 264 266 267 268 268 268 267 263 256 250 248 248 251 254 256 258 261 263 264 265 267 268 269 271 276 282 287 291 295 297 298 298 297
258 255 252 249 249 248 238 226 223 228 234 240 245 249 250 246 246 247 248 250 252 253 254 254 253 254 256 259 261 262 263 265 266 265 263 262 260 256 253 250 245 244 248 252 252 253 256 260 262 263 265 267 269 275 280 282 284 287 290 293 294 295 295
257 253 240 238 247 244 233 227 227 231 236 240 244 246 244 244 246 249 251 250 249 249 248 248 249 252 256 259 259 260 260 261 262 260 256 254 253 251 247 244 241 237 240 245 249 253 255 258 260 261 263 265 270 275 278 278 279 282 286 288 290 291 291
254 245 227 229 242 235 226 226 227 230 234 237 240 239 239 242 245 247 247 244 243 245 245 246 250 254 256 256 255 254 254 255 255 255 253 249 248 247 244 241 238 237 239 242 246 251 254 256 259 260 262 265 269 272 274 274 277 281 285 288 289 290 289
249 241 227 226 232 227 224 226 227 229 231 233 235 236 238 240 240 240 239 238 241 243 244 248 252 253 252 250 249 248 247 249 251 253 253 249 246 244 242 238 237 237 240 243 246 249 251 253 256 258 261 264 267 269 271 273 277 281 284 286 288 287 287
246 239 228 224 227 227 225 227 228 228 228 228 231 234 237 237 234 232 232 237 244 245 247 250 251 251 250 248 247 245 244 245 248 251 254 253 249 245 242 239 238 240 242 244 247 250 250 252 255 257 260 263 265 267 269 270 274 278 281 283 284 284 284
245 238 228 226 233 236 230 227 228 227 226 227 229 231 233 231 230 231 234 240 246 248 249 251 251 250 247 245 245 244 244 245 246 249 252 254 253 250 247 244 243 244 245 246 248 250 253 255 257 259 260 263 264 264 265 267 270 275 277 278 279 279 280
246 237 231 233 244 245 232 225 225 225 223 226 229 228 226 227 231 234 238 242 243 244 245 248 249 248 245 243 244 245 245 245 246 247 249 251 252 251 250 249 247 247 248 248 248 250 253 255 257 258 259 260 262 262 262 263 266 269 273 274 275 276 276
243 235 233 238 246 243 230 223 225 225 221 224 229 226 223 228 234 235 237 239 239 238 241 245 249 251 250 246 244 244 244 243 244 245 247 250 252 252 252 252 251 250 250 251 251 252 252 253 255 257 258 259 261 261 262 264 266 268 269 270 271 271 272
237 235 234 238 245 243 231 225 226 225 221 224 227 224 222 227 231 233 234 236 236 237 241 247 252 257 258 256 251 247 245 244 245 248 251 253 254 254 254 254 253 253 253 254 255 256 256 256 256 257 259 260 262 263 264 265 267 268 268 269 270 270 271
241 240 238 239 243 241 235 232 228 225 224 227 229 229 229 230 232 233 234 234 235 238 244 250 255 259 262 262 259 255 252 251 252 254 257 258 258 258 256 254 254 254 255 256 258 258 258 258 257 257 258 260 261 264 265 265 267 268 270 271 272 272 273
244 243 241 240 239 235 235 237 234 230 230 233 235 236 237 237 236 234 235 237 239 242 247 253 258 262 263 261 258 256 255 256 256 256 257 257 257 257 255 254 253 254 255 256 257 258 258 258 258 258 258 260 261 263 265 266 268 269 270 271 271 273 274
244 242 239 237 234 230 231 234 234 234 234 235 238 239 240 240 239 237 238 240 243 246 250 254 258 261 262 260 257 255 254 255 255 255 254 254 255 255 255 255 254 255 256 257 258 258 258 259 259 259 259 260 262 263 265 266 267 268 269 269 269 270 272
242 240 236 231 227 227 229 229 229 231 233 235 238 240 241 242 243 242 242 243 246 249 251 252 255 258 261 260 257 256 255 254 253 252 252 251 253 254 256 257 258 257 257 257 257 257 258 259 261 261 262 263 264 265 266 266 266 267 267 268 269 271 273
238 237 235 230 226 228 231 230 229 230 233 237 239 241 244 246 248 248 248 249 250 251 250 251 253 256 260 262 262 262 261 257 254 252 250 250 251 253 255 257 257 256 256 257 258 259 261 263 265 266 267 267 268 268 268 269 268 268 269 270 271 273 275
235 233 235 235 233 235 238 237 236 237 240 244 244 245 247 250 252 253 253 254 256 257 256 255 255 257 260 263 264 264 264 262 257 253 251 250 251 252 253 254 255 256 257 259 260 261 263 266 268 270 271 271 271 271 271 271 271 271 272 273 273 274 275
235 233 236 236 236 240 243 244 244 245 247 250 250 249 250 252 253 253 253 255 259 262 262 261 259 259 259 261 263 264 262 259 255 251 250 250 250 251 253 255 257 261 264 266 266 266 268 271 273 274 274 274 275 275 274 274 274 274 274 275 275 275 276
235 234 237 235 236 242 246 247 249 250 251 254 254 252 252 254 254 254 254 257 260 261 261 261 261 260 259 260 263 264 260 253 250 249 248 250 252 254 257 258 260 262 264 267 270 271 272 274 276 277 277 278 278 277 277 276 276 276 276 276 275 275 275
234 236 239 239 240 245 249 250 253 256 257 259 259 257 255 257 259 261 263 263 262 260 259 258 257 257 257 257 261 263 258 248 245 246 249 253 257 258 259 260 261 262 261 262 265 268 270 273 275 276 276 277 277 278 277 276 274 275 275 275 274 274 274
233 234 237 238 240 242 246 251 254 257 259 260 261 259 259 260 260 260 260 258 257 258 259 257 253 251 253 256 258 259 253 246 244 247 251 256 259 260 260 261 262 263 263 262 263 264 266 267 267 267 269 272 273 275 276 275 274 274 274 273 273 273 274
234 234 235 238 239 240 244 248 252 255 259 260 259 259 261 262 258 252 250 250 252 256 261 262 256 252 253 255 254 251 247 244 246 251 256 259 261 262 263 262 262 262 262 263 264 264 265 266 266 266 267 268 269 270 270 271 274 276 275 274 273 273 274
233 235 236 237 240 243 245 248 251 255 260 262 260 259 260 260 255 250 248 249 253 257 261 262 258 254 252 251 246 243 243 245 249 255 259 261 263 265 265 264 264 264 264 264 265 265 266 267 268 268 268 267 266 266 267 269 273 275 275 275 275 275 275
234 238 240 240 242 245 247 248 252 255 257 259 260 260 259 258 255 252 252 253 255 257 259 258 254 251 249 246 244 243 245 249 253 257 261 264 267 269 270 269 269 270 270 270 270 269 269 268 269 269 270 269 268 268 269 271 273 274 275 276 277 276 276
236 239 242 241 241 243 245 248 251 253 255 257 259 259 258 256 254 252 252 254 255 256 256 255 252 249 249 249 248 249 252 256 259 262 265 268 270 271 271 273 274 275 275 274 274 273 272 271 270 270 270 271 271 272 274 275 276 276 276 277 277 277 278
239 240 242 242 242 243 246 248 250 252 254 255 256 257 256 254 253 252 252 254 258 259 258 256 254 252 252 253 253 255 259 262 265 267 268 270 270 271 271 273 274 275 275 275 274 273 272 272 271 270 271 272 274 275 277 278 279 279 279 279 279 279 280
244 245 247 247 248 248 249 250 251 252 253 254 254 255 254 253 252 252 254 258 262 262 259 255 255 256 258 259 260 263 264 264 265 266 269 270 272 272 272 273 272 272 273 272 271 270 270 270 270 271 273 275 276 277 278 279 280 280 280 281 281 281 281
246 248 250 251 251 251 250 250 250 250 251 252 253 253 253 253 253 254 256 258 260 259 256 254 255 257 260 262 264 267 268 268 267 268 270 271 272 272 272 272 272 271 271 271 271 271 271 271 272 273 275 277 278 279 279 280 280 280 280 280 279 280 280
246 247 249 250 250 251 251 251 251 251 252 253 254 255 255 256 256 256 257 257 257 256 254 254 256 258 260 263 266 268 270 271 272 272 272 272 272 272 272 272 271 270 270 271 272 272 273 274 275 276 277 278 279 279 280 279 279 279 279 279 279 279 279
Height
5783 5785 5786 5787 5789 5789 5790 5792 5793 5794 5795 5795 5796 5796 5796 5797 5798 5799 5800 5800 5801 5802 5803 5804 5805 5806 5806 5807 5808 5808 5808 5808 5808 5808 5809 5809 5809 5809 5810 5809 5809 5809 5809 5808 5808 5808 5808 5808 5809 5809 5809 5809 5808 5808 5809 5809 5809 5809 5808 5808 5808 5809 5809
5781 5783 5784 5786 5787 5787 5788 5790 5792 5793 5794 5794 5794 5794 5795 5796 5797 5797 5798 5799 5799 5800 5801 5802 5803 5804 5805 5806 5806 5807 5807 5807 5807 5807 5808 5808 5808 5809 5809 5808 5808 5808 5808 5807 5806 5807 5807 5807 5808 5808 5808 5808 5808 5808 5808 5808 5808 5808 5808 5808 5808 5808 5808
5779 5780 5781 5783 5785 5785 5787 5789 5790 5792 5792 5792 5792 5793 5794 5794 5795 5796 5796 5797 5798 5799 5800 5801 5802 5803 5803 5804 5805 5805 5806 5806 5806 5806 5806 5807 5807 5808 5808 5807 5807 5807 5807 5806 5805 5806 5806 5807 5807 5807 5807 5807 5807 5807 5807 5808 5808 5808 5808 5808 5808 5808 5807
5777 5778 5779 5781 5783 5784 5785 5787 5789 5790 5790 5790 5791 5791 5792 5793 5794 5794 5795 5796 5796 5797 5798 5799 5800 5801 5802 5803 5803 5804 5804 5805 5805 5805 5805 5806 5806 5806 5806 5806 5806 5806 5806 5806 5805 5805 5805 5805 5806 5806 5806 5806 5806 5806 5806 5806 5807 5807 5807 5807 5807 5807 5806
5776 5777 5778 5780 5781 5782 5784 5785 5787 5788 5788 5789 5789 5790 5791 5791 5792 5793 5794 5794 5795 5796 5797 5798 5799 5800 5801 5801 5802 5802 5803 5803 5803 5803 5803 5804 5805 5805 5805 5805 5805 5805 5805 5805 5805 5804 5804 5803 5804 5805 5805 5805 5806 5805 5805 5805 5805 5805 5805 5805 5805 5805 5805
5774 5775 5778 5779 5779 5780 5781 5783 5785 5786 5787 5787 5788 5789 5789 5790 5791 5792 5792 5793 5794 5794 5795 5796 5797 5798 5799 5800 5800 5801 5801 5802 5802 5801 5802 5802 5803 5803 5803 5803 5803 5803 5804 5804 5804 5804 5803 5802 5803 5804 5804 5804 5804 5804 5804 5804 5804 5804 5804 5804 5804 5804 5804
5772 5773 5775 5777 5777 5778 5779 5781 5783 5784 5785 5786 5786 5787 5788 5789 5790 5790 5791 5792 5792 5793 5794 5795 5796 5796 5797 5798 5798 5799 5800 5800 5800 5800 5800 5800 5801 5801 5801 5802 5802 5802 5802 5802 5802 5802 5802 5802 5802 5802 5803 5803 5803 5803 5803 5803 5803 5803 5803 5803 5803 5803 5803
5770 5771 5773 5774 5774 5775 5776 5778 5780 5782 5783 5784 5785 5785 5786 5787 5788 5789 5790 5790 5791 5792 5792 5793 5794 5794 5795 5796 5797 5797 5798 5798 5799 5799 5799 5798 5799 5799 5800 5800 5800 5801 5801 5800 5801 5801 5801 5801 5802 5802 5802 5802 5802 5802 5802 5802 5802 5802 5802 5802 5802 5802 5802
5768 5770 5771 5772 5772 5773 5774 5776 5778 5779 5781 5782 5783 5783 5784 5785 5786 5787 5788 5789 5789 5790 5790 5791 5792 5792 5793 5794 5795 5796 5796 5797 5797 5798 5797 5797 5797 5798 5798 5799 5799 5799 5799 5799 5799 5799 5799 5800 5801 5801 5801 5801 5801 5801 5801 5801 5801 5801 5801 5801 5801 5801 5801
5767 5768 5769 5769 5770 5771 5772 5774 5775 5777 5778 5780 5781 5781 5782 5783 5784 5785 5786 5787 5788 5788 5789 5789 5790 5790 5791 5792 5793 5794 5794 5795 5796 5796 5796 5796 5796 5796 5797 5797 5797 5798 5797 5797 5798 5798 5798 5799 5800 5799 5799 5800 5800 5800 5800 5800 5800 5800 5800 5800 5800 5800 5800
5765 5765 5766 5767 5768 5769 5771 5772 5773 5775 5776 5778 5779 5779 5780 5781 5782 5783 5784 5785 5786 5786 5787 5787 5788 5788 5789 5790 5791 5791 5792 5793 5794 5794 5795 5795 5795 5795 5795 5795 5796 5796 5796 5796 5797 5797 5797 5798 5798 5798 5798 5798 5798 5798 5799 5799 5799 5799 5799 5799 5799 5799 5799
5762 5763 5764 5765 5766 5767 5769 5770 5772 5773 5775 5776 5777 5777 5778 5779 5780 5781 5782 5783 5784 5784 5785 5786 5786 5787 5787 5788 5789 5789 5791 5792 5792 5793 5793 5793 5793 5794 5794 5794 5794 5795 5795 5795 5795 5795 5796 5796 5797 5797 5797 5797 5797 5797 5797 5797 5797 5797 5797 5797 5797 5797 5797
5760 5760 5762 5763 5765 5765 5767 5768 5769 5771 5773 5774 5775 5775 5776 5777 5778 5779 5780 5781 5782 5783 5784 5784 5785 5785 5786 5786 5787 5788 5789 5790 5790 5791 5791 5791 5792 5792 5792 5792 5792 5793 5793 5793 5793 5794 5794 5795 5795 5795 5795 5795 5795 5795 5796 5795 5795 5795 5795 5795 5795 5795 5795
5757 5758 5759 5761 5763 5763 5765 5766 5767 5769 5770 5772 5773 5773 5774 5775 5776 5777 5778 5779 5780 5781 5782 5783 5783 5784 5784 5785 5786 5787 5787 5788 5789 5789 5789 5790 5790 5790 5791 5791 5791 5791 5791 5791 5792 5792 5793 5793 5793 5793 5794 5793 5793 5794 5794 5794 5793 5793 5793 5793 5793 5793 5793
5754 5755 5757 5758 5760 5761 5762 5763 5765 5766 5768 5769 5770 5771 5772 5773 5774 5775 5776 5777 5778 5779 5780 5781 5781 5782 5783 5783 5784 5785 5786 5786 5787 5787 5788 5788 5789 5789 5789 5789 5789 5789 5790 5790 5790 5790 5791 5791 5791 5791 5791 5791 5791 5791 5792 5792 5792 5791 5791 5791 5791 5791 5791
5752 5753 5755 5756 5758 5759 5760 5761 5763 5764 5765 5767 5768 5769 5769 5770 5771 5773 5774 5775 5776 5776 5777 5778 5779 5780 5781 5781 5782 5783 5784 5784 5785 5785 5786 5786 5787 5787 5787 5787 5787 5788 5788 5788 5788 5788 5789 5789 5789 5789 5789 5789 5789 5789 5789 5790 5790 5789 5789 5789 5789 5789 5789
5750 5752 5753 5754 5756 5757 5758 5759 5761 5762 5763 5764 5765 5766 5767 5768 5769 5770 5771 5772 5773 5774 5775 5776 5777 5778 5779 5780 5780 5781 5782 5782 5782 5783 5783 5784 5784 5784 5785 5785 5785 5786 5786 5786 5786 5786 5786 5787 5786 5786 5787 5787 5787 5786 5787 5787 5787 5787 5787 5787 5786 5786 5786
5748 5749 5751 5753 5754 5756 5757 5758 5759 5760 5761 5762 5763 5764 5764 5766 5767 5768 5769 5770 5771 5772 5773 5774 5775 5776 5777 5778 5778 5779 5779 5780 5780 5780 5781 5781 5781 5782 5782 5783 5783 5783 5783 5783 5784 5784 5784 5784 5784 5784 5784 5784 5784 5784 5784 5784 5784 5784 5784 5784 5784 5784 5784
5747 5748 5749 5751 5752 5754 5755 5756 5757 5758 5759 5760 5761 5761 5762 5763 5764 5765 5766 5768 5769 5770 5771 5772 5773 5774 5775 5776 5776 5777 5777 5778 5778 5778 5778 5778 5779 5779 5779 5780 5780 5780 5781 5781 5781 5781 5781 5781 5781 5781 5781 5781 5781 5781 5781 5781 5781 5781 5781 5781 5781 5781 5781
5747 5747 5748 5749 5750 5752 5753 5755 5755 5756 5757 5758 5759 5759 5760 5761 5762 5763 5765 5766 5767 5768 5769 5770 5771 5772 5773 5773 5774 5774 5775 5775 5775 5775 5775 5776 5776 5776 5776 5776 5777 5777 5777 5778 5778 5778 5779 5779 5779 5778 5778 5779 5779 5779 5778 5778 5778 5778 5778 5778 5777 5777 5778
5744 5745 5746 5747 5748 5749 5751 5752 5754 5755 5756 5756 5757 5757 5758 5759 5760 5762 5763 5764 5765 5766 5767 5768 5769 5770 5770 5771 5771 5772 5772 5772 5772 5772 5772 5772 5772 5773 5773 5773 5773 5774 5774 5775 5775 5775 5776 5776 5776 5776 5776 5776 5776 5776 5776 5776 5776 5775 5775 5775 5774 5774 5773
5741 5742 5743 5744 5745 5747 5749 5750 5751 5753 5754 5754 5754 5755 5756 5757 5758 5760 5761 5762 5763 5764 5765 5766 5766 5767 5768 5768 5768 5768 5769 5769 5769 5769 5769 5769 5769 5769 5770 5770 5771 5771 5772 5772 5772 5773 5773 5773 5773 5773 5774 5774 5774 5774 5773 5773 5773 5772 5772 5771 5771 5770 5770
5738 5739 5740 5741 5743 5745 5746 5747 5749 5750 5751 5752 5752 5753 5753 5754 5756 5757 5758 5760 5761 5762 5763 5763 5763 5764 5765 5765 5765 5765 5765 5765 5765 5765 5765 5766 5766 5766 5767 5768 5768 5769 5769 5769 5769 5769 5769 5770 5770 5771 5771 5771 5771 5771 5770 5770 5769 5769 5769 5768 5767 5766 5766
5736 5737 5737 5739 5740 5742 5744 5745 5746 5747 5748 5749 5750 5750 5751 5752 5753 5754 5756 5757 5759 5759 5760 5760 5761 5761 5761 5762 5762 5762 5762 5762 5762 5762 5762 5762 5762 5763 5764 5765 5765 5766 5766 5766 5766 5766 5767 5767 5767 5768 5768 5768 5767 5767 5767 5766 5766 5765 5765 5764 5763 5763 5762
5734 5734 5735 5737 5738 5739 5741 5742 5744 5745 5746 5746 5747 5748 5749 5749 5750 5752 5753 5754 5755 5756 5756 5757 5758 5758 5758 5759 5759 5759 5759 5759 5759 5759 5759 5759 5760 5760 5761 5762 5762 5763 5763 5763 5763 5763 5764 5764 5764 5765 5765 5764 5764 5764 5763 5763 5762 5762 5761 5761 5760 5759 5759
5731 5732 5733 5735 5736 5736 5738 5739 5741 5742 5742 5743 5744 5745 5746 5747 5748 5749 5750 5751 5752 5753 5753 5754 5754 5755 5755 5756 5756 5756 5756 5756 5756 5755 5756 5756 5757 5757 5758 5758 5759 5760 5760 5760 5760 5760 5761 5761 5761 5761 5761 5761 5761 5760 5759 5759 5758 5758 5758 5757 5756 5756 5755
5729 5730 5731 5732 5733 5734 5735 5736 5737 5738 5739 5740 5741 5742 5743 5744 5745 5746 5747 5748 5748 5749 5750 5750 5750 5751 5752 5752 5752 5752 5752 5753 5752 5752 5753 5753 5753 5754 5754 5755 5756 5757 5758 5758 5756 5756 5757 5757 5758 5758 5758 5757 5757 5756 5755 5755 5754 5754 5753 5752 5752 5751 5750
5725 5727 5729 5730 5731 5732 5732 5733 5733 5734 5735 5737 5738 5739 5740 5740 5741 5742 5743 5744 5744 5744 5745 5745 5746 5746 5747 5748 5749 5748 5749 5749 5749 5749 5750 5750 5750 5751 5751 5752 5753 5754 5755 5755 5753 5752 5753 5754 5755 5755 5754 5753 5753 5751 5750 5749 5749 5749 5748 5747 5747 5746 5745
5723 5724 5726 5727 5729 5729 5729 5730 5731 5731 5732 5733 5734 5735 5736 5737 5737 5738 5738 5739 5739 5739 5740 5740 5741 5742 5743 5744 5744 5744 5745 5745 5745 5746 5747 5747 5748 5748 5749 5749 5750 5750 5750 5751 5750 5749 5749 5749 5750 5751 5750 5749 5749 5748 5746 5744 5742 5743 5742 5741 5741 5740 5739
5720 5722 5723 5724 5725 5726 5727 5727 5728 5729 5729 5730 5731 5732 5732 5733 5733 5734 5734 5735 5735 5736 5736 5736 5737 5738 5739 5739 5739 5740 5741 5741 5742 5743 5744 5745 5745 5745 5746 5747 5747 5746 5746 5746 5746 5746 5745 5745 5745 5746 5746 5745 5744 5743 5742 5739 5737 5737 5737 5736 5735 5735 5734
5717 5719 5720 5721 5722 5723 5724 5725 5725 5726 5727 5728 5728 5729 5729 5730 5730 5731 5731 5732 5732 5733 5733 5733 5734 5734 5735 5735 5735 5736 5737 5738 5739 5740 5741 5742 5742 5742 5742 5743 5742 5742 5742 5742 5742 5742 5742 5741 5741 5740 5740 5740 5739 5738 5737 5735 5734 5732 5731 5730 5730 5729 5728
5715 5716 5717 5718 5719 5720 5721 5722 5722 5723 5724 5724 5725 5725 5726 5727 5728 5728 5728 5729 5729 5730 5730 5731 5731 5731 5732 5732 5732 5733 5734 5735 5736 5737 5737 5737 5738 5738 5737 5737 5737 5737 5737 5737 5737 5737 5736 5735 5735 5734 5733 5733 5732 5731 5731 5730 5729 5727 5725 5725 5723 5722 5721
5712 5713 5714 5715 5716 5717 5718 5718 5719 5720 5720 5721 5721 5722 5723 5724 5725 5725 5726 5726 5726 5727 5728 5728 5728 5728 5729 5729 5730 5731 5731 5732 5733 5733 5732 5733 5733 5732 5732 5732 5733 5732 5731 5731 5730 5730 5729 5729 5728 5727 5726 5725 5725 5724 5724 5723 5722 5721 5720 5719 5717 5715 5714
5709 5710 5711 5712 5713 5714 5715 5716 5716 5717 5717 5718 5719 5719 5720 5721 5722 5722 5723 5723 5724 5724 5725 5725 5725 5726 5726 5727 5727 5728 5728 5729 5728 5728 5728 5728 5727 5727 5726 5727 5728 5727 5725 5724 5724 5723 5723 5722 5721 5720 5719 5719 5718 5717 5717 5716 5715 5713 5712 5711 5709 5708 5706
5707 5708 5708 5709 5710 5711 5712 5713 5713 5714 5714 5715 5716 5716 5717 5718 5719 5719 5720 5721 5721 5722 5722 5723 5723 5723 5723 5723 5724 5724 5725 5725 5725 5723 5723 5723 5723 5722 5722 5723 5723 5722 5720 5719 5718 5718 5717 5716 5715 5714 5712 5711 5711 5709 5709 5708 5707 5706 5704 5702 5701 5699 5697
5704 5704 5705 5706 5707 5707 5708 5709 5709 5710 5711 5712 5712 5713 5714 5714 5715 5716 5716 5717 5717 5718 5718 5719 5719 5719 5719 5719 5720 5720 5720 5720 5720 5719 5719 5719 5718 5717 5717 5717 5717 5716 5714 5713 5712 5711 5710 5709 5708 5707 5705 5704 5703 5702 5701 5700 5699 5697 5696 5694 5692 5690 5689
5700 5701 5702 5702 5703 5704 5704 5705 5706 5707 5708 5708 5709 5709 5710 5711 5711 5712 5712 5713 5713 5713 5714 5714 5714 5714 5714 5714 5715 5715 5715 5714 5714 5713 5713 5713 5713 5712 5711 5711 5710 5710 5708 5707 5706 5704 5703 5702 5701 5700 5698 5696 5695 5693 5692 5691 5690 5688 5687 5685 5683 5681 5680